﻿測定場所 (Monitoring sites),日付 (Measurement date),時間 (Measurement time),線量率 最大値 (max) μGy/h,線量率 最小値 (min) μGy/h,線量率 平均値 (average) μGy/h,
新宿 (Shinjuku),2012-03-18,23:01～24:00,0.0534,0.0464,0.0500,
新宿 (Shinjuku),2012-03-18,22:01～23:00,0.0531,0.0463,0.0497,
新宿 (Shinjuku),2012-03-18,21:01～22:00,0.0538,0.0464,0.0502,
新宿 (Shinjuku),2012-03-18,20:01～21:00,0.0565,0.0490,0.0516,
新宿 (Shinjuku),2012-03-18,19:01～20:00,0.0554,0.0463,0.0516,
新宿 (Shinjuku),2012-03-18,18:01～19:00,0.0560,0.0481,0.0516,
新宿 (Shinjuku),2012-03-18,17:01～18:00,0.0552,0.0467,0.0508,
新宿 (Shinjuku),2012-03-18,16:01～17:00,0.0532,0.0462,0.0494,
新宿 (Shinjuku),2012-03-18,15:01～16:00,0.0544,0.0469,0.0508,
新宿 (Shinjuku),2012-03-18,14:01～15:00,0.0550,0.0467,0.0504,
新宿 (Shinjuku),2012-03-18,13:01～14:00,0.0539,0.0476,0.0512,
新宿 (Shinjuku),2012-03-18,12:01～13:00,0.0537,0.0469,0.0505,
新宿 (Shinjuku),2012-03-18,11:01～12:00,0.0531,0.0482,0.0506,
新宿 (Shinjuku),2012-03-18,10:01～11:00,0.0539,0.0462,0.0505,
新宿 (Shinjuku),2012-03-18,09:01～10:00,0.0541,0.0472,0.0508,
新宿 (Shinjuku),2012-03-18,08:01～09:00,0.0541,0.0481,0.0509,
新宿 (Shinjuku),2012-03-18,07:01～08:00,0.0543,0.0473,0.0507,
新宿 (Shinjuku),2012-03-18,06:01～07:00,0.0540,0.0459,0.0502,
新宿 (Shinjuku),2012-03-18,05:01～06:00,0.0549,0.0475,0.0508,
新宿 (Shinjuku),2012-03-18,04:01～05:00,0.0540,0.0473,0.0504,
新宿 (Shinjuku),2012-03-18,03:01～04:00,0.0536,0.0472,0.0502,
新宿 (Shinjuku),2012-03-18,02:01～03:00,0.0531,0.0440,0.0499,
新宿 (Shinjuku),2012-03-18,01:01～02:00,0.0538,0.0471,0.0499,
新宿 (Shinjuku),2012-03-18,00:01～01:00,0.0540,0.0468,0.0501,
新宿 (Shinjuku),2012-03-17,23:01～24:00,0.0533,0.0473,0.0502,
新宿 (Shinjuku),2012-03-17,22:01～23:00,0.0541,0.0471,0.0506,
新宿 (Shinjuku),2012-03-17,21:01～22:00,0.0549,0.0474,0.0509,
新宿 (Shinjuku),2012-03-17,20:01～21:00,0.0547,0.0468,0.0508,
新宿 (Shinjuku),2012-03-17,19:01～20:00,0.0571,0.0473,0.0518,
新宿 (Shinjuku),2012-03-17,18:01～19:00,0.0550,0.0471,0.0514,
新宿 (Shinjuku),2012-03-17,17:01～18:00,0.0548,0.0489,0.0516,
新宿 (Shinjuku),2012-03-17,16:01～17:00,0.0556,0.0472,0.0512,
新宿 (Shinjuku),2012-03-17,15:01～16:00,0.0565,0.0480,0.0528,
新宿 (Shinjuku),2012-03-17,14:01～15:00,0.0556,0.0499,0.0526,
新宿 (Shinjuku),2012-03-17,13:01～14:00,0.0586,0.0487,0.0538,
新宿 (Shinjuku),2012-03-17,12:01～13:00,0.0610,0.0509,0.0556,
新宿 (Shinjuku),2012-03-17,11:01～12:00,0.0585,0.0512,0.0546,
新宿 (Shinjuku),2012-03-17,10:01～11:00,0.0592,0.0515,0.0548,
新宿 (Shinjuku),2012-03-17,09:01～10:00,0.0589,0.0516,0.0554,
新宿 (Shinjuku),2012-03-17,08:01～09:00,0.0590,0.0527,0.0560,
新宿 (Shinjuku),2012-03-17,07:01～08:00,0.0599,0.0529,0.0564,
新宿 (Shinjuku),2012-03-17,06:01～07:00,0.0575,0.0486,0.0530,
新宿 (Shinjuku),2012-03-17,05:01～06:00,0.0539,0.0479,0.0505,
新宿 (Shinjuku),2012-03-17,04:01～05:00,0.0537,0.0468,0.0504,
新宿 (Shinjuku),2012-03-17,03:01～04:00,0.0521,0.0461,0.0497,
新宿 (Shinjuku),2012-03-17,02:01～03:00,0.0531,0.0456,0.0499,
新宿 (Shinjuku),2012-03-17,01:01～02:00,0.0559,0.0462,0.0502,
新宿 (Shinjuku),2012-03-17,00:01～01:00,0.0548,0.0480,0.0502,
新宿 (Shinjuku),2012-03-16,23:01～24:00,0.0530,0.0451,0.0496,
新宿 (Shinjuku),2012-03-16,22:01～23:00,0.0525,0.0464,0.0495,
新宿 (Shinjuku),2012-03-16,21:01～22:00,0.0530,0.0465,0.0499,
新宿 (Shinjuku),2012-03-16,20:01～21:00,0.0526,0.0464,0.0494,
新宿 (Shinjuku),2012-03-16,19:01～20:00,0.0527,0.0458,0.0494,
新宿 (Shinjuku),2012-03-16,18:01～19:00,0.0533,0.0468,0.0496,
新宿 (Shinjuku),2012-03-16,17:01～18:00,0.0530,0.0457,0.0497,
新宿 (Shinjuku),2012-03-16,16:01～17:00,0.0548,0.0469,0.0499,
新宿 (Shinjuku),2012-03-16,15:01～16:00,0.0527,0.0456,0.0498,
新宿 (Shinjuku),2012-03-16,14:01～15:00,0.0533,0.0466,0.0503,
新宿 (Shinjuku),2012-03-16,13:01～14:00,0.0530,0.0466,0.0500,
新宿 (Shinjuku),2012-03-16,12:01～13:00,0.0532,0.0472,0.0503,
新宿 (Shinjuku),2012-03-16,11:01～12:00,0.0544,0.0477,0.0505,
新宿 (Shinjuku),2012-03-16,10:01～11:00,0.0544,0.0466,0.0506,
新宿 (Shinjuku),2012-03-16,09:01～10:00,0.0539,0.0477,0.0504,
新宿 (Shinjuku),2012-03-16,08:01～09:00,0.0538,0.0478,0.0508,
新宿 (Shinjuku),2012-03-16,07:01～08:00,0.0549,0.0483,0.0509,
新宿 (Shinjuku),2012-03-16,06:01～07:00,0.0525,0.0468,0.0501,
新宿 (Shinjuku),2012-03-16,05:01～06:00,0.0526,0.0461,0.0496,
新宿 (Shinjuku),2012-03-16,04:01～05:00,0.0535,0.0477,0.0504,
新宿 (Shinjuku),2012-03-16,03:01～04:00,0.0555,0.0468,0.0501,
新宿 (Shinjuku),2012-03-16,02:01～03:00,0.0537,0.0469,0.0501,
新宿 (Shinjuku),2012-03-16,01:01～02:00,0.0525,0.0462,0.0499,
新宿 (Shinjuku),2012-03-16,00:01～01:00,0.0542,0.0466,0.0503,
新宿 (Shinjuku),2012-03-15,23:01～24:00,0.0536,0.0475,0.0503,
新宿 (Shinjuku),2012-03-15,22:01～23:00,0.0534,0.0463,0.0496,
新宿 (Shinjuku),2012-03-15,21:01～22:00,0.0535,0.0463,0.0497,
新宿 (Shinjuku),2012-03-15,20:01～21:00,0.0540,0.0450,0.0502,
新宿 (Shinjuku),2012-03-15,19:01～20:00,0.0524,0.0474,0.0494,
新宿 (Shinjuku),2012-03-15,18:01～19:00,0.0518,0.0456,0.0493,
新宿 (Shinjuku),2012-03-15,17:01～18:00,0.0535,0.0466,0.0498,
新宿 (Shinjuku),2012-03-15,16:01～17:00,0.0536,0.0468,0.0496,
新宿 (Shinjuku),2012-03-15,15:01～16:00,0.0535,0.0461,0.0499,
新宿 (Shinjuku),2012-03-15,14:01～15:00,0.0539,0.0467,0.0501,
新宿 (Shinjuku),2012-03-15,13:01～14:00,0.0540,0.0463,0.0503,
新宿 (Shinjuku),2012-03-15,12:01～13:00,0.0532,0.0474,0.0501,
新宿 (Shinjuku),2012-03-15,11:01～12:00,0.0533,0.0473,0.0505,
新宿 (Shinjuku),2012-03-15,10:01～11:00,0.0540,0.0452,0.0504,
新宿 (Shinjuku),2012-03-15,09:01～10:00,0.0565,0.0471,0.0513,
新宿 (Shinjuku),2012-03-15,08:01～09:00,0.0549,0.0480,0.0509,
新宿 (Shinjuku),2012-03-15,07:01～08:00,0.0544,0.0471,0.0506,
新宿 (Shinjuku),2012-03-15,06:01～07:00,0.0538,0.0471,0.0503,
新宿 (Shinjuku),2012-03-15,05:01～06:00,0.0542,0.0464,0.0509,
新宿 (Shinjuku),2012-03-15,04:01～05:00,0.0546,0.0475,0.0507,
新宿 (Shinjuku),2012-03-15,03:01～04:00,0.0538,0.0475,0.0507,
新宿 (Shinjuku),2012-03-15,02:01～03:00,0.0536,0.0473,0.0506,
新宿 (Shinjuku),2012-03-15,01:01～02:00,0.0532,0.0466,0.0502,
新宿 (Shinjuku),2012-03-15,00:01～01:00,0.0534,0.0466,0.0497,
新宿 (Shinjuku),2012-03-14,23:01～24:00,0.0531,0.0464,0.0497,
新宿 (Shinjuku),2012-03-14,22:01～23:00,0.0538,0.0451,0.0498,
新宿 (Shinjuku),2012-03-14,21:01～22:00,0.0532,0.0469,0.0499,
新宿 (Shinjuku),2012-03-14,20:01～21:00,0.0527,0.0466,0.0500,
新宿 (Shinjuku),2012-03-14,19:01～20:00,0.0531,0.0454,0.0491,
新宿 (Shinjuku),2012-03-14,18:01～19:00,0.0520,0.0460,0.0495,
新宿 (Shinjuku),2012-03-14,17:01～18:00,0.0542,0.0464,0.0491,
新宿 (Shinjuku),2012-03-14,16:01～17:00,0.0531,0.0468,0.0499,
新宿 (Shinjuku),2012-03-14,15:01～16:00,0.0531,0.0460,0.0499,
新宿 (Shinjuku),2012-03-14,14:01～15:00,0.0534,0.0472,0.0504,
新宿 (Shinjuku),2012-03-14,13:01～14:00,0.0527,0.0467,0.0500,
新宿 (Shinjuku),2012-03-14,12:01～13:00,0.0527,0.0472,0.0499,
新宿 (Shinjuku),2012-03-14,11:01～12:00,0.0532,0.0471,0.0502,
新宿 (Shinjuku),2012-03-14,10:01～11:00,0.0539,0.0467,0.0503,
新宿 (Shinjuku),2012-03-14,09:01～10:00,0.0534,0.0467,0.0500,
新宿 (Shinjuku),2012-03-14,08:01～09:00,0.0540,0.0481,0.0509,
新宿 (Shinjuku),2012-03-14,07:01～08:00,0.0538,0.0474,0.0505,
新宿 (Shinjuku),2012-03-14,06:01～07:00,0.0547,0.0473,0.0501,
新宿 (Shinjuku),2012-03-14,05:01～06:00,0.0535,0.0470,0.0500,
新宿 (Shinjuku),2012-03-14,04:01～05:00,0.0536,0.0473,0.0502,
新宿 (Shinjuku),2012-03-14,03:01～04:00,0.0536,0.0475,0.0501,
新宿 (Shinjuku),2012-03-14,02:01～03:00,0.0539,0.0466,0.0500,
新宿 (Shinjuku),2012-03-14,01:01～02:00,0.0540,0.0465,0.0498,
新宿 (Shinjuku),2012-03-14,00:01～01:00,0.0533,0.0468,0.0501,
新宿 (Shinjuku),2012-03-13,23:01～24:00,0.0537,0.0468,0.0497,
新宿 (Shinjuku),2012-03-13,22:01～23:00,0.0532,0.0465,0.0496,
新宿 (Shinjuku),2012-03-13,21:01～22:00,0.0534,0.0462,0.0494,
新宿 (Shinjuku),2012-03-13,20:01～21:00,0.0528,0.0460,0.0497,
新宿 (Shinjuku),2012-03-13,19:01～20:00,0.0533,0.0473,0.0497,
新宿 (Shinjuku),2012-03-13,18:01～19:00,0.0537,0.0461,0.0495,
新宿 (Shinjuku),2012-03-13,17:01～18:00,0.0520,0.0472,0.0497,
新宿 (Shinjuku),2012-03-13,16:01～17:00,0.0545,0.0459,0.0503,
新宿 (Shinjuku),2012-03-13,15:01～16:00,0.0535,0.0470,0.0502,
新宿 (Shinjuku),2012-03-13,14:01～15:00,0.0547,0.0477,0.0508,
新宿 (Shinjuku),2012-03-13,13:01～14:00,0.0534,0.0468,0.0500,
新宿 (Shinjuku),2012-03-13,12:01～13:00,0.0557,0.0469,0.0503,
新宿 (Shinjuku),2012-03-13,11:01～12:00,0.0533,0.0464,0.0505,
新宿 (Shinjuku),2012-03-13,10:01～11:00,0.0526,0.0475,0.0500,
新宿 (Shinjuku),2012-03-13,09:01～10:00,0.0538,0.0471,0.0503,
新宿 (Shinjuku),2012-03-13,08:01～09:00,0.0538,0.0475,0.0507,
新宿 (Shinjuku),2012-03-13,07:01～08:00,0.0549,0.0465,0.0504,
新宿 (Shinjuku),2012-03-13,06:01～07:00,0.0529,0.0466,0.0501,
新宿 (Shinjuku),2012-03-13,05:01～06:00,0.0545,0.0454,0.0498,
新宿 (Shinjuku),2012-03-13,04:01～05:00,0.0535,0.0455,0.0494,
新宿 (Shinjuku),2012-03-13,03:01～04:00,0.0538,0.0464,0.0499,
新宿 (Shinjuku),2012-03-13,02:01～03:00,0.0530,0.0462,0.0499,
新宿 (Shinjuku),2012-03-13,01:01～02:00,0.0532,0.0473,0.0501,
新宿 (Shinjuku),2012-03-13,00:01～01:00,0.0527,0.0464,0.0493,
新宿 (Shinjuku),2012-03-12,23:01～24:00,0.0542,0.0459,0.0497,
新宿 (Shinjuku),2012-03-12,22:01～23:00,0.0533,0.0464,0.0501,
新宿 (Shinjuku),2012-03-12,21:01～22:00,0.0543,0.0464,0.0496,
新宿 (Shinjuku),2012-03-12,20:01～21:00,0.0538,0.0463,0.0496,
新宿 (Shinjuku),2012-03-12,19:01～20:00,0.0546,0.0464,0.0497,
新宿 (Shinjuku),2012-03-12,18:01～19:00,0.0516,0.0470,0.0495,
新宿 (Shinjuku),2012-03-12,17:01～18:00,0.0537,0.0461,0.0496,
新宿 (Shinjuku),2012-03-12,16:01～17:00,0.0530,0.0450,0.0497,
新宿 (Shinjuku),2012-03-12,15:01～16:00,0.0539,0.0462,0.0497,
新宿 (Shinjuku),2012-03-12,14:01～15:00,0.0535,0.0471,0.0500,
新宿 (Shinjuku),2012-03-12,13:01～14:00,0.0533,0.0466,0.0499,
新宿 (Shinjuku),2012-03-12,12:01～13:00,0.0537,0.0466,0.0505,
新宿 (Shinjuku),2012-03-12,11:01～12:00,0.0539,0.0469,0.0508,
新宿 (Shinjuku),2012-03-12,10:01～11:00,0.0542,0.0480,0.0509,
新宿 (Shinjuku),2012-03-12,09:01～10:00,0.0541,0.0485,0.0512,
新宿 (Shinjuku),2012-03-12,08:01～09:00,0.0540,0.0479,0.0510,
新宿 (Shinjuku),2012-03-12,07:01～08:00,0.0541,0.0476,0.0507,
新宿 (Shinjuku),2012-03-12,06:01～07:00,0.0536,0.0465,0.0507,
新宿 (Shinjuku),2012-03-12,05:01～06:00,0.0533,0.0471,0.0507,
新宿 (Shinjuku),2012-03-12,04:01～05:00,0.0560,0.0462,0.0507,
新宿 (Shinjuku),2012-03-12,03:01～04:00,0.0554,0.0476,0.0506,
新宿 (Shinjuku),2012-03-12,02:01～03:00,0.0540,0.0473,0.0505,
新宿 (Shinjuku),2012-03-12,01:01～02:00,0.0536,0.0461,0.0502,
新宿 (Shinjuku),2012-03-12,00:01～01:00,0.0544,0.0468,0.0506,
